Mura (Bages)





Hora UTC 08:15
Temperatura 9.2 ºC
Humitat 75.0 %
Pressió 996.0 hPa
Pluja 0.4 mm
Velocitat vent 3.2 km/h
Direcció vent

Dades diàries 2022-12-10



Hora UTC (hivern +1h; estiu +2h)
Temperatura (ºC) Humitat (%) Pressió (hPa) Velocitat vent (km/h) Precipitació (mm)
Hora UTC Aire Humitat Pressió Vel. Dir. Vel. Max Dir. Intent. màx 5 min.
00:05 8.8 78.0 993.3 0.0 0.0 0.0
00:15 8.8 77.0 993.3 0.0 0.0 0.0
00:25 8.7 78.0 993.2 0.0 0.0 0.2
00:35 8.5 78.0 993.1 0.0 0.0 0.0
00:45 8.4 78.0 993.1 0.0 0.0 0.0
00:55 8.3 78.0 993.0 0.0 0.0 0.0
01:05 8.2 78.0 993.2 0.0 0.0 0.0
01:15 8.1 78.0 993.2 0.0 0.0 0.0
01:25 8.1 78.0 993.3 0.0 0.0 0.0
01:35 7.9 78.0 993.4 0.0 0.0 0.0
01:45 7.9 77.0 993.4 0.0 0.0 0.0
01:55 7.9 77.0 993.4 0.0 0.0 0.0
02:05 7.9 77.0 993.4 0.0 0.0 0.0
02:15 7.9 77.0 993.5 0.0 0.0 0.0
02:25 7.9 77.0 993.6 0.0 0.0 0.0
02:35 7.8 77.0 993.7 0.0 0.0 0.0
02:45 7.8 77.0 993.7 0.0 0.0 0.0
02:55 7.7 77.0 993.8 0.0 0.0 0.0
03:05 7.6 77.0 993.9 0.0 0.0 0.0
03:15 7.6 77.0 993.9 0.0 0.0 0.0
03:25 7.6 77.0 994.0 0.0 0.0 0.0
03:35 7.6 77.0 994.0 0.0 0.0 0.0
03:45 7.7 76.0 994.0 0.0 0.0 0.0
03:55 7.7 76.0 994.0 0.0 0.0 0.0
04:05 7.7 76.0 994.1 0.0 0.0 0.0
04:15 7.7 76.0 994.1 0.0 0.0 0.0
04:25 7.8 76.0 994.2 0.0 0.0 0.0
04:35 8.0 75.0 994.3 0.0 3.2 0.2
04:45 8.1 75.0 994.3 0.0 3.2 0.0
04:55 8.2 75.0 994.5 0.0 3.2 0.0
05:05 8.3 75.0 994.2 0.0 3.2 0.0
05:15 8.4 75.0 994.2 0.0 3.2 0.0
05:25 8.4 75.0 994.5 0.0 3.2 0.0
05:35 8.4 75.0 994.6 0.0 3.2 0.0
05:45 8.5 75.0 994.6 0.0 3.2 0.0
05:55 8.5 75.0 994.6 0.0 3.2 0.0
06:05 8.6 75.0 994.8 0.0 3.2 0.0
06:15 8.6 75.0 994.8 0.0 3.2 0.0
06:25 8.7 75.0 995.1 0.0 3.2 0.0
06:35 8.7 75.0 995.1 0.0 3.2 0.0
06:45 8.7 75.0 995.1 0.0 3.2 0.0
06:55 8.8 75.0 995.3 0.0 3.2 0.0
07:05 8.9 75.0 995.3 0.0 3.2 0.0
07:15 8.9 75.0 995.6 0.0 3.2 0.0
07:25 9.0 75.0 995.6 0.0 3.2 0.0
07:35 9.0 75.0 995.6 0.0 3.2 0.0
07:45 9.1 75.0 995.6 0.0 3.2 0.0
07:55 9.1 75.0 995.7 0.0 3.2 0.0
08:05 9.2 75.0 996.0 0.0 4.8 0.0
08:15 9.2 75.0 996.0 3.2 12.9 0.0
Màxima 9.2 78.0 996.0 3.2 12.9 0.2
Mínima 7.5 75.0 993.0
Total 0.4